Weather History for Camp Humphreys, South Korea

Change the Weather History Date:

Wednesday, March 27, 2013

  Actual Average Record
Temperature  
Mean Temperature 46 °F -  
Max Temperature 63 °F 53 °F 72 °F (2014)
Min Temperature 29 °F 35 °F 26 °F (2001)
Degree Days  
Heating Degree Days 19    
Moisture  
Dew Point 28 °F    
Average Humidity 63    
Maximum Humidity 100    
Minimum Humidity 9    
Precipitation  
Precipitation 0.00 in - - ()
Sea Level Pressure  
Sea Level Pressure 30.03 in    
Wind  
Wind Speed 2 mph ()    
Max Wind Speed 13 mph    
Max Gust Speed -    
Visibility 9.0 miles    
Events      
Averages and records for this station are not official NWS values.
T = Trace of Precipitation, MM = Missing Value Source: Averaged Metar Reports

Daily Weather History Graph

Daily Weather History Graph

Search for Another Location

Airport:

Trip Planner

Search our weather history database for the weather conditions in past years. The results will help you decide how hot, cold, wet, or windy it might be!

Date:

Astronomy

Mar. 27, 2013 Rise Set
Actual Time 6:25 AM KST 6:49 PM KST
Civil Twilight 5:59 AM KST 7:15 PM KST
Nautical Twilight 5:29 AM KST 7:46 PM KST
Astronomical Twilight 4:58 AM KST 8:17 PM KST
Moon 6:51 PM KST (3/27) 5:55 AM KST (3/27)
Length of Visible Light 13h 16m
Length of Day
12h 24m
Full, 100% of the Moon is Illuminated
Mar 27
Full
Mar 27
Full
Apr 3
Last Quarter
Apr 10
New
Apr 18
First Quarter

Hourly Weather History & Observations

Time (KST) Temp. Windchill Dew Point Humidity Pressure Visibility Wind Dir Wind Speed Gust Speed Precip Events Conditions
12:00 AM 35 °F - 20 °F 42% 30.12 in - East 3.5 mph - -  
12:55 AM 32.4 °F - 32.2 °F 99% 30.11 in 10.0 mi Calm Calm - N/A   Clear
1:55 AM 32.2 °F - 31.8 °F 99% 30.10 in 9.0 mi Calm Calm - N/A   Partly Cloudy
2:04 AM 32.0 °F - 32.0 °F 100% 30.10 in 8.0 mi Calm Calm - N/A   Partly Cloudy
2:50 AM 32.0 °F - 32.0 °F 100% 30.10 in 9.0 mi Calm Calm - N/A   Scattered Clouds
2:55 AM 33.1 °F - 32.9 °F 99% 30.10 in 10.0 mi Calm Calm - N/A   Scattered Clouds
3:00 AM 31 °F - 22 °F 59% 30.11 in - East 4.5 mph - -  
3:04 AM 32.0 °F - 32.0 °F 100% 30.10 in 9.0 mi Calm Calm - N/A   Partly Cloudy
3:55 AM 31.5 °F - 31.5 °F 100% 30.09 in 8.0 mi Calm Calm - N/A   Clear
4:55 AM 29.3 °F - 29.3 °F 100% 30.08 in 7.0 mi Calm Calm - N/A   Clear
5:55 AM 28.8 °F 25.0 °F 28.8 °F 100% 30.08 in 6.0 mi SE 3.5 mph - N/A   Clear
6:00 AM 32 °F - 25 °F 65% 30.10 in - Calm Calm - -  
6:15 AM 30.2 °F - 30.2 °F 100% 30.08 in 7.0 mi Calm Calm - N/A   Clear
6:55 AM 28.8 °F - 28.8 °F 100% 30.08 in 5.0 mi Calm Calm - N/A   Clear
7:55 AM 34.2 °F - 34.2 °F 100% 30.08 in 6.0 mi Calm Calm - N/A   Clear
8:55 AM 39.2 °F - 38.7 °F 98% 30.08 in 7.0 mi Calm Calm - N/A   Clear
9:00 AM 39 °F - 26 °F 48% 30.09 in - NNW 2.2 mph - -  
9:55 AM 45.1 °F - 34.0 °F 65% 30.08 in 10.0 mi Calm Calm - N/A   Clear
10:55 AM 49.6 °F - 31.1 °F 49% 30.05 in 10.0 mi Calm Calm - N/A   Clear
11:55 AM 54.5 °F - 30.9 °F 41% 30.03 in 10.0 mi Calm Calm - N/A   Partly Cloudy
12:00 PM 55 °F - 28 °F 23% 30.01 in - North 4.6 mph - -  
12:55 PM 57.7 °F - 22.1 °F 25% 30.00 in 10.0 mi West 6.9 mph - N/A   Partly Cloudy
1:55 PM 59.7 °F - 21.2 °F 23% 29.97 in 10.0 mi WNW 10.4 mph - N/A   Partly Cloudy
2:55 PM 60.8 °F - 23.4 °F 24% 29.94 in 10.0 mi NNW 10.4 mph - N/A   Clear
3:00 PM 61 °F - 17 °F 9% 29.90 in - WNW 13.4 mph - -  
3:55 PM 60.8 °F - 25.5 °F 26% 29.93 in 10.0 mi West 10.4 mph - N/A   Clear
4:55 PM 55.4 °F - 29.3 °F 37% 29.93 in 10.0 mi WNW 11.5 mph - N/A   Clear
5:55 PM 51.3 °F - 23.5 °F 34% 29.94 in 10.0 mi NW 10.4 mph - N/A   Clear
6:00 PM 61 °F - 24 °F 14% 29.88 in - West 5.8 mph - -  
6:55 PM 45.1 °F 41.4 °F 27.7 °F 50% 29.95 in 10.0 mi West 6.9 mph - N/A   Clear
7:55 PM 41.2 °F 36.6 °F 24.4 °F 51% 29.96 in 10.0 mi West 6.9 mph - N/A   Clear
8:55 PM 40.1 °F - 22.8 °F 50% 29.98 in 10.0 mi Calm Calm - N/A   Clear
9:00 PM 51 °F - 19 °F 16% 29.95 in - SSW 8.9 mph - -  
9:55 PM 39.4 °F - 29.1 °F 67% 29.99 in 10.0 mi Calm Calm - N/A   Clear
10:55 PM 37.9 °F - 27.7 °F 67% 30.02 in 10.0 mi Calm Calm - N/A   Clear
11:55 PM 34.9 °F - 34.7 °F 99% 30.03 in 10.0 mi Calm Calm - N/A   Clear